{"data":{"norad_id":46328,"epoch":"2026-05-30T05:58:43.975776Z","epoch_age_seconds":9799223,"freshness":"OLD","line1":"1 46328U 20062D   26150.24912009  .07937814  12360-4  74025-3 0  9990","line2":"2 46328  53.0157 260.8824 0010024 293.3711  66.6279 16.37742367318137","mean_motion":16.37742367,"eccentricity":0.0010024,"inclination_deg":53.0157,"raan_deg":260.8824,"arg_perigee_deg":293.3711,"mean_anomaly_deg":66.6279,"bstar":0.00074025,"rev_number":31813,"period_min":87.925917349124,"perigee_km":165.24934759171,"apogee_km":178.38069140039,"semimajor_km":6549.9520194961,"source":"CELESTRAK","updated_at":"2026-05-30T09:00:35.015381Z"}}